Location: Lane
(33.5226°N, 79.8788°W)
Time: 19:52:56
(UTC+00:00)

Courier 1B Rocket - Pass Details

Date: 09 October 2022
Orbit: 920 x 1202 km, 28.3° (Epoch: 01 December)

Event Time Altitude Azimuth Distance (km) Brightness Sun altitude
Rises 18:33:16 0° 201° (SSW) 4,078 9.0 45.1°
Reaches altitude 10° 18:38:00 10° 177° (S) 3,092 8.4 44.5°
Maximum altitude 18:41:22 13° 150° (SSE) 2,816 7.9 44.1°
Drops below altitude 10° 18:44:41 10° 124° (ESE) 3,034 7.7 43.8°
Sets 18:49:12 0° 99° (E) 3,938 8.0 43.2°
